Hourly Data Report for July 23, 2021

BORDEN AWOS
ONTARIO
Current Station Operator: DND

44°16'20.000" N
79°54'42.000" W
222.50 m
611B002
71534
YBN

Download Data

Hourly Data (July 2021)
Hourly Data Report for July 23, 2021
TIME
LST
Temp Definition
°C
Dew Point Definition
°C
Rel Hum Definition
%
Precip. Amount Definition
mm

Wind Dir Definition
10's deg

Wind Spd Definition
km/h
Visibility Definition
km
Stn Press Definition
kPa
Hmdx Definition


Wind Chill Definition


Weather Definition


00:00 10.7 10.5 99     0 14.5 99.60     LegendNANA
01:00 9.8 9.2 96   21 4 14.5 99.61     LegendNANA
02:00 9.0 8.8 99     0 0.5 99.61     LegendNANA
03:00 8.4 8.2 99   23 4 3.9 99.61     LegendNANA
04:00 7.9 7.6 98     0 14.5 99.62     LegendNANA
05:00 8.0 7.8 99   25 4 9.7 99.64     LegendNANA
06:00 9.9 9.6 98   21 4 14.5 99.67     LegendNANA
07:00 15.0 12.6 86     0 14.5 99.67     LegendNANA
08:00 18.8 11.2 61     0 14.5 99.67     LegendNANA
09:00 21.2 10.5 50   36 6 14.5 99.66     LegendNANA
10:00 22.4 10.8 48   36 6 14.5 99.64     LegendNANA
11:00 23.8 11.6 46   25 9 14.5 99.60 26   LegendNANA
12:00 24.7 11.4 43   21 6 14.5 99.56 27   LegendNANA
13:00 25.0 11.0 41   29 7 14.5 99.52 27   LegendNANA
14:00 25.1 11.3 42   2 6 14.5 99.48 27   LegendNANA
15:00 25.9 11.2 40   7 9 14.5 99.42 28   LegendNANA
16:00 26.2 11.2 39   5 9 14.5 99.39 28   LegendNANA
17:00 26.4 11.3 39   4 6 14.5 99.33 28   LegendNANA
18:00 25.3 11.7 43   3 7 14.5 99.30 27   LegendNANA
19:00 23.6 13.7 54   32 4 14.5 99.29 27   LegendNANA
20:00 19.1 15.2 78     0 14.5 99.28     LegendNANA
21:00 16.3 13.8 85     0 14.5 99.32     LegendNANA
22:00 14.7 13.2 91     0 14.5 99.34     LegendNANA
23:00 14.0 13.3 96     0 14.5 99.31     LegendNANA

Notes on Data Quality.

Legend

  • E = Estimated
  • M = Missing
  • NA = Not Available*
  • [empty] = Indicates an unobserved value
Date modified: